This is the latest recevied weather packets stored in our database for station/object IK1PCD-11. If no packets are shown the sender has not sent any weather packets the latest 10 day(s).
| Time | Temp. | Humidity | Pressure | Rain* | Wind** | Luminosity | Snow |
|---|---|---|---|---|---|---|---|
| 1777700012 | 2.78° C | 82% | 1024 hPa | - | - | - | - |
| 1777699112 | 2.78° C | 80% | 1023.9 hPa | - | - | - | - |
| 1777698212 | 2.78° C | 80% | 1023.9 hPa | - | - | - | - |
| 1777695511 | 2.22° C | 84% | 1023.9 hPa | - | - | - | - |
| 1777694611 | 2.22° C | 82% | 1023.8 hPa | - | - | - | - |
| 1777693711 | 2.22° C | 81% | 1023.8 hPa | - | - | - | - |
| 1777692811 | 2.22° C | 80% | 1023.7 hPa | - | - | - | - |
| 1777691911 | 2.22° C | 80% | 1023.7 hPa | - | - | - | - |
| 1777691011 | 2.22° C | 77% | 1023.8 hPa | - | - | - | - |
| 1777690111 | 2.78° C | 74% | 1023.8 hPa | - | - | - | - |
| 1777689211 | 2.22° C | 75% | 1023.8 hPa | - | - | - | - |
| 1777688311 | 2.22° C | 75% | 1024 hPa | - | - | - | - |
| 1777687411 | 2.78° C | 73% | 1023.9 hPa | - | - | - | - |
| 1777686511 | 2.22° C | 76% | 1023.9 hPa | - | - | - | - |
| 1777685610 | 2.22° C | 77% | 1023.9 hPa | - | - | - | - |
| 1777684710 | 2.78° C | 75% | 1023.9 hPa | - | - | - | - |
| 1777683810 | 2.78° C | 74% | 1024 hPa | - | - | - | - |
| 1777682910 | 2.78° C | 74% | 1023.9 hPa | - | - | - | - |
| 1777682017 | 2.78° C | 77% | 1024 hPa | - | - | - | - |
| 1777681106 | 2.78° C | 75% | 1024.1 hPa | - | - | - | - |
| 1777680206 | 2.78° C | 78% | 1024.1 hPa | - | - | - | - |
| 1777679306 | 2.78° C | 78% | 1024.2 hPa | - | - | - | - |
| 1777678406 | 2.78° C | 77% | 1024.3 hPa | - | - | - | - |
| 1777677506 | 2.78° C | 77% | 1024.4 hPa | - | - | - | - |
| 1777676606 | 3.33° C | 74% | 1024.4 hPa | - | - | - | - |
* Rain since midnight (hover to see other rain measurements)
** Current wind speed in m/s (hover to see current wind gust speed)